[vc_row][vc_column width=”2/3″]

Nesenie raksti

Ziņas

[/vc_column][vc_column width=”1/3″ el_class=”sticky-column”]

Par Gliding.lv

[vc_column_text]Gliding.lv ir interneta vietne par planieriem un planierismu. Šeit būs atrodama informācija par iespējām pamēģināt, iesaistīties un organizēt planierisma aktivitātes. Izmanto Gliding.lv forumu, ja Tev ir kāda tēma diskusijai vai jautājums. Gliding.lv merķis ir informēt un apvienot planierisma interesentus, nodrošinot un apmainoties ar aktuālāko un arī bijušo. Lidojam![/vc_column_text][vc_column_text]
[/vc_column_text]

METAR

EVRA 242250Z 21001KT 9999 1100 R36/P2000N MIFG NSC 10/10 Q1018 NOSIG

EVLA 242250Z AUTO 05003KT 9999 NCD 12/11 Q1017

EVVA 242250Z AUTO 00000KT CAVOK 09/09 Q1018

Nesenie raksti

[/vc_column][/vc_row]

Pāriet uz rīkjoslu